Location: Beaver Brook Trail
(44.0290°N, 71.8137°W)
Time: 02:30:34
(UTC+00:00)

SR - Pass Details

Date: 18 November 2024
Orbit: 573 x 858 km, 66.7° (Epoch: 03 December)

Event Time Altitude Azimuth Distance (km) Brightness Sun altitude
Exits shadow 11:00:06 - 327° (NNW) 2,826 ? -8.6°
Reaches altitude 10° 11:01:29 10° 327° (NNW) 2,298 ? -8.4°
Maximum altitude 11:06:48 83° 240° (WSW) 814 ? -7.5°
Drops below altitude 10° 11:12:27 10° 153° (SSE) 2,440 ? -6.5°
Sets 11:14:58 0° 153° (SSE) 3,393 ? -6.1°
